This is the latest recevied weather packets stored in our database for station/object W8XLR-2. If no packets are shown the sender has not sent any weather packets the latest 10 day(s).
| Time | Temp. | Humidity | Pressure | Rain* | Wind** | Luminosity | Snow |
|---|---|---|---|---|---|---|---|
| 1777544208 | 5.56° C | 96% | 1013.5 hPa | 0.25 mm | - | - | - |
| 1777543608 | 5.56° C | 96% | 1013.3 hPa | 0.25 mm | - | - | - |
| 1777543207 | 6.11° C | 97% | 1013.1 hPa | 1.27 mm | - | - | - |
| 1777543129 | 6.11° C | 97% | 1013.1 hPa | 1.27 mm | - | - | - |
| 1777543008 | 6.11° C | 97% | 1013.1 hPa | 1.27 mm | - | - | - |
| 1777542533 | 6.11° C | 97% | 1013.1 hPa | 1.27 mm | - | - | - |
| 1777542411 | 6.11° C | 97% | 1013.1 hPa | 1.27 mm | - | - | - |
| 1777541808 | 6.11° C | 97% | 1013 hPa | 1.27 mm | - | - | - |
| 1777541209 | 6.67° C | 96% | 1012.8 hPa | 1.02 mm | - | - | - |
| 1777540673 | 6.67° C | 96% | 1012.8 hPa | 1.02 mm | - | - | - |
| 1777540609 | 6.67° C | 96% | 1012.8 hPa | 1.02 mm | - | - | - |
| 1777540011 | 7.22° C | 96% | 1012.8 hPa | 1.27 mm | - | - | - |
| 1777539408 | 7.22° C | 97% | 1012.7 hPa | 0.25 mm | - | - | - |
| 1777538829 | 7.22° C | 97% | 1012.7 hPa | 0.25 mm | - | - | - |
| 1777538215 | 7.78° C | 97% | 1012.6 hPa | 0.76 mm | - | - | - |
| 1777537707 | 7.78° C | 97% | 1012.5 hPa | 0.76 mm | - | - | - |
| 1777537613 | 7.78° C | 97% | 1012.5 hPa | 0.76 mm | - | - | - |
| 1777537012 | 7.78° C | 97% | 1012.5 hPa | 0.76 mm | - | - | - |
| 1777536414 | 7.78° C | 97% | 1012.5 hPa | 0.76 mm | - | - | - |
| 1777535808 | 7.78° C | 97% | 1012.3 hPa | 1.02 mm | - | - | - |
| 1777535210 | 7.78° C | 97% | 1012.3 hPa | 1.02 mm | - | - | - |
| 1777534608 | 7.78° C | 96% | 1012.5 hPa | 0.76 mm | - | - | - |
| 1777534053 | 7.78° C | 97% | 1012.5 hPa | 1.02 mm | - | - | - |
| 1777534013 | 7.78° C | 97% | 1012.5 hPa | 1.02 mm | - | - | - |
| 1777533412 | 7.78° C | 97% | 1012.5 hPa | 1.02 mm | - | - | - |
* Rain latest hour (hover to see other rain measurements)
** Current wind speed in m/s (hover to see current wind gust speed)